STARLINK-1454, 45671

Orbit data source: Space-Track

STARLINK-1454, 45671 is a payload satellite owned by SpaceX/Seattle (US) in LEO that was launched on Thu, 04 Jun 2020 UTC via an FALCON 9 launch vehicle from the Air Force Eastern Test Range (AFETR). Payload-class satellites include a variety of spacecraft equipped with specific instruments for various scientific and technological missions. These include communications satellites like Starlink; space stations such as the ISS; scientific satellites like the Hubble; Earth observation satellites from companies like Planet Labs, Umbra, and HawkEye 360; GPS; miniature CubeSats for education and research; and military/defense satellites.

Loading next visibility...
Identifier
45671, 2020-035Q
Orbit
LEO
Country
Flag of USUS
Related business
Manufacturer
SpaceX/Seattle
Mission
Partially operational Commercial Communications
Bus & Motor
STARLINK, Unknown motor
Mass
260 kg wet, ~248 kg dry
Launch date (UTC)
2020-06-04 (6 years ago)
Launch vehicle
FALCON 9
Launch site
Air Force Eastern Test Range (AFETR)
Object type
Payload
Rocket body
Debris
Shape & HBR
Box + 1 Pan, 10.1 m
Radar Cross Section
13.562 m², Large (>1 m²)

Expand to show TLE details & history
Last TLE update: 23 hours ago

TLE from 23 hours ago
0 STARLINK-1454
1 45671U 20035Q   26125.37407903  .00123864  00000-0  13804-2 0  9994
2 45671  53.0451 138.0717 0005188 344.2479  15.8372 15.61939938327748
Epoch: 2026-05-05T08:58Z
TLE epoch observation values (Epoch: 2026-05-05T08:58:40.428Z)
Latitude
0.00001°
Longitude
140.15341°
Altitude
379.579 km
Speed
7.685 km/s
True Right ascension
09h 12m 17s
True Declination
0° 00' 00"
Sunlit
Object was in daylight at epoch
Visualization orbit readout
Latitude
Unknown
Longitude
Unknown
Altitude
Unknown
Speed
Unknown
Apparent Right ascension
Unknown
Apparent Declination
Unknown
Sunlit
N/A
Visualization observer readout
Local Sidereal Time
15:57:26
Azimuth
Unknown
Elevation
Unknown
Doppler factor
Unknown
Orbital elements
Apogee altitude
385.84 km
Perigee altitude
378.825 km
Semi-major axis
6,760.469 km
Eccentricity
0.00052
Inclination
53.0451°
RAAN
138.0717°
Arg. of periapsis
344.2479°
True anomaly
15.85343°
Mean anomaly
15.8372°
Eccentric anomaly
15.84532°
Mean motion
3.90461 °/min
Orbital period
92.2 mins
BSTAR
0.0013804
Loading maneuver chart data...
Computing Atmospheric mass density...
Loading historical data...
Loading historical data...
Loading historical data...
Loading historical data...
Loading historical data...
Loading historical data...
Loading historical data...

Documentation

Showing up to 5 results
|